Location: London
(51.5074°N, 0.1278°W)
Time: 20:00:59
(UTC+01:00)

Tiangong - Pass Details

Date: 03 October 2021
Orbit: 382 x 385 km, 41.5° (Epoch: 16 October)

Event Time Altitude Azimuth Distance (km) Brightness Sun altitude
Exits shadow 06:00:49 10° 219° (SW) 1,431 3.5 -10.7°
Reaches altitude 10° 06:00:59 10° 216° (SW) 1,399 3.5 -10.7°
Maximum altitude 06:02:23 12° 190° (S) 1,265 3.5 -10.5°
Drops below altitude 10° 06:03:46 10° 163° (SSE) 1,396 4.0 -10.3°
Sets 06:06:46 0° 132° (SE) 2,247 5.6 -9.8°
